Retour au catalogue

CZ-4C DEB

ActifLEO
NORAD 43421·DEBRIS·🇨🇳 China

Lancé Dec 10, 2014 depuis Jiuquan Satellite Launch Center

Loading…

Prochains Passages (prochaines 24 heures)

TLE

PériméSource: Space-Track

Époque: Aug 29, 2026, 23:26 UTC

1 43421U 14080K   26241.97647771  .00000079  00000-0  18536-3 0  9992
2 43421  63.3849 140.1666 0384120  11.5494 349.4040 13.44801834499108

Suivez CZ-4C DEB en temps réel avec AllMySat

Download on the App Store